Flag for U.S.A. Weather past 2 weeks in Winston-Salem, North Carolina, U.S.A.

Now
37 °F

Fog.


Feels Like: 33 °F
Forecast: 39 / 55 °F
Wind: 5 mph from Southwest

Location: Smith Reynolds Airport

Current Time: Mar 2, 2015 at 2:42:33 AM

Latest Report: Mar 2, 2015 at 1:54 AM


Visibility: 0 mi

Pressure: 30.24 "Hg

Humidity: 93%

Dew point: 35 °F

Location of Winston-SalemLocation

Historic Weather in Winston-Salem — Graph

°F

Winston-Salem temperature yesterday

Maximum temperature yesterday: 39 °F (at 5:54 PM)
Minimum temperature yesterday: 29 °F (at 5:54 AM)
Average temperature yesterday: 33 °F

Past Weeks' High & Low Weather Summary

 TemperatureHumidityPressure
High57 °F (Feb 22, 3:54 PM)96% (Feb 25, 10:54 PM)30.78 "Hg (Feb 25, 10:54 PM)
Low5 °F (Feb 20, 3:54 AM)19% (Feb 15, 1:54 PM)29.74 "Hg (Feb 26, 3:54 AM)
Average28 °F59%30.21 "Hg
* Reported Feb 15 12:54 AM — Mar 2 12:54 AM, Winston-Salem, Weather by CustomWeather, © 2015

Note: Actual official high and low records may vary slightly from our data, if they occured in-between our weather recording intervals... More about our weather records

Advertising

Winston-Salem weather history for previous 24 hours

 ConditionsComfort  
Time TempWeatherWind HumidityBarometerVisibility
12:54 AM
Mon, Mar 2
37 °FFog.8 mph93%30.26 "Hg1 mi
11:54 PM
Sun, Mar 1
37 °FFog.6 mph93%30.29 "Hg1 mi
11:04 PM37 °FFog.5 mph93%30.30 "Hg2 mi
10:54 PM37 °FFog.5 mph93%30.32 "Hg2 mi
9:54 PM37 °FFog.7 mph89%30.33 "Hg4 mi
8:54 PM37 °FFog.3 mph89%30.34 "Hg5 mi
7:54 PM37 °FFog.6 mph89%30.33 "Hg6 mi
6:54 PM38 °FLow clouds.No wind86%30.37 "Hg7 mi
5:54 PM39 °FOvercast.No wind82%30.37 "Hg6 mi
4:54 PM38 °FLow clouds.No wind83%30.38 "Hg7 mi
3:54 PM37 °FLight freezing rain. Mostly cloudy.No wind86%30.39 "Hg8 mi
2:54 PM34 °FLight freezing rain. More clouds than sun.No wind88%30.43 "Hg7 mi
2:03 PM33 °FLight freezing rain. Fog.5 mph88%30.43 "Hg3 mi
1:54 PM33 °FLight freezing rain. Fog.No wind85%30.46 "Hg2 mi
12:54 PM33 °FLight freezing rain. Mostly cloudy.6 mph85%30.49 "Hg8 mi
11:54 AM32 °FLight freezing rain. Mostly cloudy.6 mph85%30.53 "Hg8 mi
10:54 AM31 °FLight freezing rain. Ice fog.3 mph85%30.57 "Hg2 mi
10:03 AM30 °FLight freezing rain. Ice fog.5 mph89%30.56 "Hg2 mi
9:54 AM30 °FLight snow. Ice fog.3 mph89%30.58 "Hg5 mi
8:54 AM30 °FLight freezing rain. Overcast.5 mph82%30.59 "Hg8 mi
7:54 AM29 °FLight freezing rain. Overcast.5 mph82%30.60 "Hg9 mi
6:54 AM29 °FLight freezing rain. Overcast.3 mph75%30.61 "Hg6 mi
5:54 AM29 °FLight snow. Overcast.5 mph72%30.59 "Hg9 mi
4:54 AM30 °FOvercast.No wind61%30.61 "Hg10 mi
3:54 AM30 °FLight snow. Overcast.3 mph56%30.60 "Hg10 mi
2:54 AM31 °FOvercast.5 mph52%30.62 "Hg10 mi
Weather by CustomWeather, © 2015

See weather overviewHow to use our weather pages